Location: Fuglau
(48.6333°N, 15.5500°E)
Time: 23:30:33
(UTC+00:00)

STARLINK-61 - Pass Details

Date: 27 February 2020
Orbit: 506 x 518 km, 53.0° (Epoch: 04 April)

Event Time Altitude Azimuth Distance (km) Brightness Sun altitude
Rises 17:25:54 0° 281° (W) 2,613 8.9 -8.8°
Reaches altitude 10° 17:28:10 10° 288° (WNW) 1,729 7.5 -9.2°
Maximum altitude 17:31:55 42° 1° (N) 734 4.2 -9.8°
Enters shadow 17:35:06 14° 71° (ENE) 1,525 5.3 -10.3°
